| time (UTC) | temp F | wind direction | speed MPH | gust MPH | rain 1hr in | rain 24hr in | rain mn in | humidity % | barometer mb |
| 20260904071540 | 76 | 0 | 0.0 | 0.0 | 0.00 | 0.00 | 0.00 | 69 | 1022.2 |
| 20260904070048 | 75 | 0 | 0.0 | 3.0 | 0.00 | 0.00 | 0.00 | 69 | 1022.0 |
| 20260904064549 | 75 | 0 | 1.0 | 5.0 | 0.00 | 0.00 | 0.00 | 69 | 1021.9 |
| 20260904063056 | 75 | 142 | 1.0 | 4.0 | 0.00 | 0.00 | 0.00 | 70 | 1021.8 |
| 20260904061540 | 74 | 0 | 0.0 | 0.0 | 0.00 | 0.00 | 0.00 | 70 | 1021.7 |
| 20260904054551 | 73 | 304 | 2.0 | 4.0 | 0.00 | 0.00 | 0.00 | 70 | 1021.5 |
| 20260904053044 | 73 | 0 | 0.0 | 0.0 | 0.00 | 0.00 | 0.00 | 70 | 1021.4 |
| 20260904051542 | 74 | 0 | 0.0 | 0.0 | 0.00 | 0.00 | 0.00 | 70 | 1021.3 |
| 20260904050048 | 74 | 0 | 0.0 | 0.0 | 0.00 | 0.00 | 0.00 | 71 | 1021.3 |
| 20260904044545 | 74 | 0 | 0.0 | 0.0 | 0.00 | 0.00 | 0.00 | 71 | 1021.4 |
| 20260904043042 | 74 | 289 | 1.0 | 3.0 | 0.00 | 0.00 | 0.00 | 71 | 1021.4 |
| 20260904041541 | 74 | 287 | 3.0 | 7.0 | 0.00 | 0.00 | 0.00 | 71 | 1021.4 |
| 20260904040043 | 75 | 0 | 0.0 | 0.0 | 0.00 | 0.00 | 0.00 | 71 | 1021.4 |
| 20260904034548 | 75 | 0 | 0.0 | 0.0 | 0.00 | 0.00 | 0.00 | 71 | 1021.4 |
| 20260904033042 | 76 | 0 | 0.0 | 0.0 | 0.00 | 0.00 | 0.00 | 71 | 1021.4 |
| 20260904031541 | 76 | 288 | 1.0 | 4.0 | 0.00 | 0.00 | 0.00 | 71 | 1021.5 |
| 20260904030045 | 76 | 0 | 0.0 | 0.0 | 0.00 | 0.00 | 0.00 | 71 | 1021.6 |
| 20260904024542 | 77 | 0 | 0.0 | 0.0 | 0.00 | 0.00 | 0.00 | 71 | 1021.6 |
| 20260904023044 | 77 | 0 | 0.0 | 3.0 | 0.00 | 0.00 | 0.00 | 71 | 1021.8 |
| 20260904021551 | 77 | 0 | 0.0 | 0.0 | 0.00 | 0.00 | 0.00 | 71 | 1021.9 |
| 20260904020046 | 78 | 0 | 0.0 | 0.0 | 0.00 | 0.00 | 0.00 | 71 | 1021.9 |
| 20260904014551 | 78 | 0 | 0.0 | 0.0 | 0.00 | 0.00 | 0.00 | 71 | 1022.1 |
| 20260904013104 | 78 | 0 | 0.0 | 0.0 | 0.00 | 0.00 | 0.00 | 71 | 1022.2 |
| 20260904011542 | 78 | 0 | 0.0 | 0.0 | 0.00 | 0.00 | 0.00 | 71 | 1022.3 |
| 20260904010040 | 78 | 0 | 0.0 | 0.0 | 0.00 | 0.00 | 0.00 | 71 | 1022.5 |
| 20260904004545 | 78 | 0 | 0.0 | 0.0 | 0.00 | 0.00 | 0.00 | 71 | 1022.5 |
| 20260904003044 | 78 | 0 | 0.0 | 0.0 | 0.00 | 0.00 | 0.00 | 71 | 1022.5 |
| 20260904001556 | 78 | 0 | 0.0 | 0.0 | 0.00 | 0.00 | 0.00 | 71 | 1022.7 |
| 20260904000040 | 79 | 0 | 0.0 | 0.0 | 0.00 | 0.00 | 0.00 | 71 | 1022.6 |
| 20260903234545 | 79 | 0 | 0.0 | 0.0 | 0.00 | 0.00 | 0.00 | 70 | 1022.6 |
| 20260903233045 | 78 | 0 | 0.0 | 0.0 | 0.00 | 0.00 | 0.00 | 70 | 1022.6 |
| 20260903231543 | 78 | 0 | 0.0 | 0.0 | 0.00 | 0.00 | 0.00 | 70 | 1022.6 |
| 20260903230039 | 79 | 0 | 0.0 | 0.0 | 0.00 | 0.00 | 0.00 | 69 | 1022.5 |
| 20260903224548 | 79 | 92 | 0.0 | 3.0 | 0.00 | 0.00 | 0.00 | 69 | 1022.6 |
| 20260903223045 | 79 | 0 | 0.0 | 3.0 | 0.00 | 0.00 | 0.00 | 69 | 1022.5 |
| 20260903221541 | 79 | 0 | 2.0 | 4.0 | 0.00 | 0.00 | 0.00 | 68 | 1022.4 |
| 20260903220041 | 79 | 125 | 1.0 | 4.0 | 0.00 | 0.00 | 0.00 | 67 | 1022.4 |
| 20260903214543 | 79 | 0 | 0.0 | 4.0 | 0.00 | 0.00 | 0.00 | 67 | 1022.4 |
| 20260903213051 | 80 | 0 | 0.0 | 3.0 | 0.00 | 0.00 | 0.00 | 66 | 1022.3 |
| 20260903211543 | 80 | 119 | 1.0 | 6.0 | 0.00 | 0.00 | 0.00 | 66 | 1022.3 |
| 20260903210040 | 80 | 128 | 1.0 | 4.0 | 0.00 | 0.00 | 0.00 | 65 | 1022.4 |
| 20260903204545 | 81 | 0 | 1.0 | 4.0 | 0.00 | 0.00 | 0.00 | 64 | 1022.3 |
| 20260903203049 | 81 | 126 | 2.0 | 4.0 | 0.00 | 0.00 | 0.00 | 63 | 1022.2 |
| 20260903201539 | 81 | 0 | 0.0 | 3.0 | 0.00 | 0.00 | 0.00 | 62 | 1021.9 |
| 20260903200044 | 81 | 102 | 2.0 | 6.0 | 0.00 | 0.00 | 0.00 | 61 | 1021.9 |
| 20260903194543 | 82 | 121 | 2.0 | 6.0 | 0.00 | 0.00 | 0.00 | 59 | 1021.7 |
| 20260903193040 | 82 | 108 | 0.0 | 6.0 | 0.00 | 0.00 | 0.00 | 58 | 1021.5 |
| 20260903191545 | 82 | 106 | 2.0 | 6.0 | 0.00 | 0.00 | 0.00 | 57 | 1021.3 |
| 20260903190043 | 83 | 138 | 3.0 | 8.0 | 0.00 | 0.00 | 0.00 | 57 | 1021.3 |
| 20260903184539 | 84 | 0 | 3.0 | 8.0 | 0.00 | 0.00 | 0.00 | 56 | 1021.1 |
| 20260903183044 | 84 | 137 | 3.0 | 9.0 | 0.00 | 0.00 | 0.00 | 55 | 1021.1 |
| 20260903181542 | 85 | 101 | 4.0 | 10.0 | 0.00 | 0.00 | 0.00 | 53 | 1020.9 |
| 20260903180050 | 86 | 101 | 4.0 | 9.0 | 0.00 | 0.00 | 0.00 | 49 | 1020.9 |
| 20260903174547 | 86 | 78 | 5.0 | 9.0 | 0.00 | 0.00 | 0.00 | 47 | 1020.9 |
| 20260903173039 | 87 | 98 | 3.0 | 9.0 | 0.00 | 0.00 | 0.00 | 48 | 1021.0 |
| 20260903171547 | 88 | 114 | 5.0 | 10.0 | 0.00 | 0.00 | 0.00 | 47 | 1021.0 |
| 20260903170046 | 88 | 139 | 4.0 | 10.0 | 0.00 | 0.00 | 0.00 | 45 | 1020.9 |
| 20260903164543 | 89 | 146 | 4.0 | 10.0 | 0.00 | 0.00 | 0.00 | 44 | 1021.0 |
| 20260903163058 | 90 | 117 | 6.0 | 9.0 | 0.00 | 0.00 | 0.00 | 43 | 1021.0 |
| 20260903161542 | 90 | 125 | 5.0 | 11.0 | 0.00 | 0.00 | 0.00 | 43 | 1021.0 |
| 20260903160042 | 90 | 134 | 7.0 | 12.0 | 0.00 | 0.00 | 0.00 | 42 | 1020.8 |
| 20260903154540 | 90 | 49 | 7.0 | 11.0 | 0.00 | 0.00 | 0.00 | 40 | 1020.9 |
| 20260903153040 | 90 | 117 | 7.0 | 12.0 | 0.00 | 0.00 | 0.00 | 42 | 1021.1 |
| 20260903151545 | 90 | 17 | 8.0 | 14.0 | 0.00 | 0.00 | 0.00 | 41 | 1021.2 |
| 20260903150043 | 91 | 93 | 5.0 | 13.0 | 0.00 | 0.00 | 0.00 | 41 | 1021.4 |
| 20260903144548 | 91 | 66 | 5.0 | 13.0 | 0.00 | 0.00 | 0.00 | 40 | 1021.6 |
| 20260903143047 | 91 | 82 | 6.0 | 12.0 | 0.00 | 0.00 | 0.00 | 40 | 1021.6 |
| 20260903141554 | 91 | 144 | 7.0 | 11.0 | 0.00 | 0.00 | 0.00 | 39 | 1021.7 |
| 20260903140041 | 91 | 71 | 7.0 | 12.0 | 0.00 | 0.00 | 0.00 | 37 | 1021.7 |
| 20260903134538 | 91 | 69 | 7.0 | 13.0 | 0.00 | 0.00 | 0.00 | 37 | 1021.9 |
| 20260903133051 | 91 | 121 | 5.0 | 13.0 | 0.00 | 0.00 | 0.00 | 42 | 1021.9 |
| 20260903131546 | 90 | 78 | 6.0 | 15.0 | 0.00 | 0.00 | 0.00 | 42 | 1022.0 |
| 20260903130046 | 90 | 117 | 6.0 | 12.0 | 0.00 | 0.00 | 0.00 | 41 | 1022.1 |
| 20260903124553 | 91 | 62 | 6.0 | 12.0 | 0.00 | 0.00 | 0.00 | 42 | 1022.1 |
| 20260903123047 | 90 | 82 | 4.0 | 12.0 | 0.00 | 0.00 | 0.00 | 43 | 1022.2 |
| 20260903121551 | 90 | 118 | 6.0 | 12.0 | 0.00 | 0.00 | 0.00 | 43 | 1022.2 |
| 20260903120110 | 91 | 93 | 6.0 | 13.0 | 0.00 | 0.00 | 0.00 | 42 | 1022.3 |
| 20260903114600 | 90 | 107 | 4.0 | 10.0 | 0.00 | 0.00 | 0.00 | 43 | 1022.4 |
| 20260903113044 | 89 | 62 | 5.0 | 11.0 | 0.00 | 0.00 | 0.00 | 45 | 1022.5 |
| 20260903111542 | 89 | 131 | 6.0 | 12.0 | 0.00 | 0.00 | 0.00 | 48 | 1022.8 |
| 20260903110040 | 88 | 150 | 1.0 | 8.0 | 0.00 | 0.00 | 0.00 | 49 | 1022.8 |
| 20260903104541 | 88 | 51 | 5.0 | 10.0 | 0.00 | 0.00 | 0.00 | 50 | 1023.0 |
| 20260903103045 | 87 | 144 | 3.0 | 8.0 | 0.00 | 0.00 | 0.00 | 51 | 1023.1 |
| 20260903101548 | 86 | 83 | 2.0 | 7.0 | 0.00 | 0.00 | 0.00 | 53 | 1023.2 |
| 20260903100045 | 86 | 128 | 2.0 | 7.0 | 0.00 | 0.00 | 0.00 | 53 | 1023.5 |
| 20260903094543 | 85 | 166 | 2.0 | 7.0 | 0.00 | 0.00 | 0.00 | 55 | 1023.5 |
| 20260903093045 | 84 | 140 | 2.0 | 8.0 | 0.00 | 0.00 | 0.00 | 55 | 1023.5 |
| 20260903091543 | 84 | 158 | 3.0 | 8.0 | 0.00 | 0.00 | 0.00 | 56 | 1023.5 |
| 20260903090048 | 84 | 148 | 2.0 | 6.0 | 0.00 | 0.00 | 0.00 | 57 | 1023.4 |
| 20260903084541 | 83 | 0 | 2.0 | 8.0 | 0.00 | 0.00 | 0.00 | 58 | 1023.3 |
| 20260903083045 | 83 | 53 | 1.0 | 4.0 | 0.00 | 0.00 | 0.00 | 58 | 1023.3 |
| 20260903081542 | 82 | 133 | 2.0 | 6.0 | 0.00 | 0.00 | 0.00 | 61 | 1023.3 |
| 20260903080044 | 80 | 236 | 2.0 | 4.0 | 0.00 | 0.00 | 0.00 | 63 | 1023.3 |
| 20260903074540 | 79 | 308 | 2.0 | 4.0 | 0.00 | 0.00 | 0.00 | 64 | 1023.2 |
| 20260903073048 | 78 | 323 | 3.0 | 5.0 | 0.00 | 0.00 | 0.00 | 66 | 1023.2 |